When you browse on this site, cookies collect data to enhance your experience and personalize the content and advertising you see.
Visit our Privacy Policy to learn more. By continuing to use the site, you agree to this use of cookies and data.
  • In Latvia
  • List of Countries
  • For 7 days
  • Water Temperature
  • Satellite Maps
  • Weather Map
  • Weather Widgets
  • user-avatar
    Login

    Hourly Weather Jalapa

    Today, 18 April, Thursday

    Time Temperature Precipitation Wind Pressure Humidity
    00:00 +18°C° 0 mm 0 mps 641 mmHg 89%
    01:00 +18°C° 0.1 mm 0 mps 641 mmHg 90%
    02:00 +18°C° 0.1 mm 0 mps 640 mmHg 91%
    03:00 +18°C° 0.1 mm 0 mps 640 mmHg 93%
    04:00 +17°C° 0 mm 0 mps 640 mmHg 92%
    05:00 +17°C° 0 mm 0 mps 640 mmHg 92%
    06:00 +19°C° 0 mm 1 mps 640 mmHg 91%
    07:00 +22°C° 0 mm 1 mps 641 mmHg 79%
    08:00 +24°C° 0 mm 1 mps 642 mmHg 67%
    09:00 +27°C° 0 mm 2 mps 643 mmHg 54%
    10:00 +27°C° 0 mm 2 mps 643 mmHg 52%
    11:00 +28°C° 0 mm 2 mps 643 mmHg 50%
    12:00 +29°C° 0 mm 2 mps 643 mmHg 47%
    13:00 +29°C° 0 mm 2 mps 642 mmHg 48%
    14:00 +29°C° 0 mm 2 mps 642 mmHg 49%
    15:00 +28°C° 0 mm 2 mps 641 mmHg 51%
    16:00 +27°C° 0.1 mm 2 mps 641 mmHg 55%
    17:00 +26°C° 0.1 mm 2 mps 641 mmHg 60%
    18:00 +25°C° 0.1 mm 2 mps 640 mmHg 64%
    19:00 +24°C° 0.1 mm 1 mps 641 mmHg 69%
    20:00 +23°C° 0.1 mm 1 mps 641 mmHg 74%
    21:00 +22°C° 0.1 mm 1 mps 641 mmHg 79%
    22:00 +21°C° 0.2 mm 1 mps 641 mmHg 82%
    23:00 +21°C° 0.2 mm 1 mps 641 mmHg 84%

    Tomorrow, 19 April, Friday

    Time Temperature Precipitation Wind Pressure Humidity
    00:00 +20°C° 0.2 mm 1 mps 641 mmHg 87%
    01:00 +18°C° 0.6 mm 0 mps 641 mmHg 88%
    02:00 +18°C° 0.6 mm 0 mps 641 mmHg 89%
    03:00 +18°C° 0.6 mm 0 mps 640 mmHg 90%
    04:00 +18°C° 0 mm 0 mps 640 mmHg 90%
    05:00 +17°C° 0 mm 0 mps 641 mmHg 90%
    06:00 +17°C° 0 mm 0 mps 641 mmHg 90%
    07:00 +22°C° 0.1 mm 1 mps 642 mmHg 78%
    08:00 +24°C° 0.1 mm 1 mps 643 mmHg 66%
    09:00 +27°C° 0.1 mm 2 mps 644 mmHg 55%
    10:00 +27°C° 0.2 mm 2 mps 644 mmHg 52%
    11:00 +28°C° 0.2 mm 2 mps 644 mmHg 50%
    12:00 +28°C° 0.2 mm 2 mps 644 mmHg 48%
    13:00 +28°C° 0.2 mm 3 mps 644 mmHg 48%
    14:00 +28°C° 0.2 mm 3 mps 643 mmHg 48%
    15:00 +27°C° 0.2 mm 3 mps 643 mmHg 48%
    16:00 +26°C° 0.2 mm 3 mps 643 mmHg 54%
    17:00 +25°C° 0.2 mm 3 mps 643 mmHg 59%
    18:00 +22°C° 0.2 mm 3 mps 643 mmHg 65%
    19:00 +21°C° 0.4 mm 3 mps 643 mmHg 72%
    20:00 +20°C° 0.4 mm 3 mps 643 mmHg 79%
    21:00 +19°C° 0.4 mm 3 mps 644 mmHg 85%
    22:00 +18°C° 0.2 mm 3 mps 644 mmHg 85%
    23:00 +18°C° 0.2 mm 3 mps 644 mmHg 85%

    Day after tomorrow, 20 April, Saturday

    Time Temperature Precipitation Wind Pressure Humidity
    00:00 +17°C° 0.2 mm 3 mps 644 mmHg 85%
    01:00 +17°C° 0 mm 3 mps 643 mmHg 85%
    02:00 +17°C° 0 mm 3 mps 643 mmHg 86%
    03:00 +16°C° 0 mm 3 mps 642 mmHg 86%
    04:00 +16°C° 0 mm 3 mps 643 mmHg 86%
    05:00 +16°C° 0 mm 3 mps 643 mmHg 86%
    06:00 +16°C° 0 mm 3 mps 643 mmHg 87%
    07:00 +17°C° 0 mm 3 mps 644 mmHg 80%
    08:00 +18°C° 0 mm 3 mps 644 mmHg 72%
    09:00 +19°C° 0 mm 3 mps 645 mmHg 65%
    10:00 +21°C° 0 mm 4 mps 645 mmHg 59%
    11:00 +23°C° 0 mm 4 mps 646 mmHg 52%
    12:00 +26°C° 0 mm 4 mps 646 mmHg 45%
    13:00 +26°C° 0 mm 4 mps 645 mmHg 44%
    14:00 +27°C° 0 mm 4 mps 645 mmHg 42%
    15:00 +27°C° 0 mm 4 mps 644 mmHg 41%
    16:00 +25°C° 0 mm 4 mps 644 mmHg 43%
    17:00 +23°C° 0 mm 4 mps 644 mmHg 46%
    18:00 +21°C° 0 mm 3 mps 644 mmHg 48%
    19:00 +20°C° 0 mm 3 mps 644 mmHg 52%
    20:00 +19°C° 0 mm 2 mps 644 mmHg 56%
    21:00 +17°C° 0 mm 2 mps 644 mmHg 59%
    22:00 +17°C° 0 mm 2 mps 644 mmHg 62%
    23:00 +16°C° 0 mm 2 mps 644 mmHg 64%

    21 April, Sunday

    Time Temperature Precipitation Wind Pressure Humidity
    00:00 +16°C° 0 mm 2 mps 643 mmHg 67%
    01:00 +15°C° 0 mm 2 mps 643 mmHg 68%
    02:00 +15°C° 0 mm 2 mps 642 mmHg 68%
    03:00 +14°C° 0 mm 1 mps 642 mmHg 69%
    04:00 +14°C° 0 mm 1 mps 642 mmHg 69%
    05:00 +14°C° 0 mm 1 mps 642 mmHg 68%
    06:00 +14°C° 0 mm 1 mps 642 mmHg 68%
    07:00 +17°C° 0 mm 2 mps 643 mmHg 57%
    08:00 +20°C° 0 mm 2 mps 645 mmHg 46%
    09:00 +24°C° 0 mm 2 mps 646 mmHg 35%
    10:00 +25°C° 0 mm 2 mps 646 mmHg 33%
    11:00 +27°C° 0 mm 2 mps 646 mmHg 31%
    12:00 +29°C° 0 mm 3 mps 646 mmHg 28%
    13:00 +29°C° 0 mm 3 mps 645 mmHg 29%
    14:00 +29°C° 0 mm 3 mps 645 mmHg 30%
    15:00 +29°C° 0 mm 3 mps 644 mmHg 31%
    16:00 +27°C° 0 mm 3 mps 644 mmHg 37%
    17:00 +25°C° 0 mm 3 mps 644 mmHg 44%
    18:00 +24°C° 0 mm 2 mps 643 mmHg 51%
    19:00 +21°C° 0 mm 2 mps 643 mmHg 59%
    20:00 +20°C° 0 mm 2 mps 644 mmHg 67%
    21:00 +18°C° 0 mm 2 mps 644 mmHg 76%
    22:00 +19°C° 0 mm 1 mps 643 mmHg 80%
    23:00 +18°C° 0 mm 1 mps 643 mmHg 84%

    22 April, Monday

    Time Temperature Precipitation Wind Pressure Humidity
    00:00 +18°C° 0 mm 1 mps 643 mmHg 89%
    01:00 +16°C° 0 mm 1 mps 642 mmHg 90%
    02:00 +16°C° 0 mm 1 mps 642 mmHg 90%
    03:00 +16°C° 0 mm 1 mps 641 mmHg 91%
    04:00 +16°C° 0 mm 1 mps 641 mmHg 91%
    05:00 +15°C° 0 mm 1 mps 642 mmHg 91%
    06:00 +15°C° 0 mm 1 mps 642 mmHg 90%
    07:00 +19°C° 0 mm 1 mps 643 mmHg 77%
    08:00 +22°C° 0 mm 1 mps 644 mmHg 63%
    09:00 +25°C° 0 mm 1 mps 645 mmHg 49%
    10:00 +27°C° 0 mm 1 mps 645 mmHg 43%
    11:00 +29°C° 0 mm 2 mps 645 mmHg 37%
    12:00 +31°C° 0 mm 2 mps 645 mmHg 31%
    13:00 +31°C° 0 mm 2 mps 645 mmHg 33%
    14:00 +30°C° 0 mm 2 mps 644 mmHg 34%
    15:00 +30°C° 0 mm 2 mps 643 mmHg 35%
    16:00 +28°C° 0.1 mm 2 mps 643 mmHg 41%
    17:00 +27°C° 0.1 mm 2 mps 643 mmHg 47%
    18:00 +26°C° 0.1 mm 2 mps 643 mmHg 54%
    19:00 +24°C° 0.2 mm 2 mps 643 mmHg 61%
    20:00 +23°C° 0.2 mm 2 mps 643 mmHg 68%
    21:00 +22°C° 0.2 mm 1 mps 643 mmHg 75%
    22:00 +21°C° 0.1 mm 1 mps 643 mmHg 80%
    23:00 +20°C° 0.1 mm 1 mps 642 mmHg 84%

    23 April, Tuesday

    Time Temperature Precipitation Wind Pressure Humidity
    00:00 +19°C° 0.1 mm 1 mps 642 mmHg 89%
    01:00 +19°C° 0 mm 1 mps 642 mmHg 89%
    02:00 +19°C° 0 mm 1 mps 641 mmHg 90%
    03:00 +18°C° 0 mm 1 mps 641 mmHg 90%
    04:00 +18°C° 0 mm 1 mps 641 mmHg 91%
    05:00 +18°C° 0 mm 1 mps 641 mmHg 91%
    06:00 +18°C° 0 mm 1 mps 641 mmHg 92%
    07:00 +20°C° 0 mm 1 mps 643 mmHg 79%
    08:00 +23°C° 0 mm 1 mps 644 mmHg 66%
    09:00 +26°C° 0 mm 1 mps 645 mmHg 53%
    10:00 +28°C° 0 mm 1 mps 645 mmHg 45%
    11:00 +30°C° 0 mm 1 mps 645 mmHg 38%
    12:00 +32°C° 0 mm 2 mps 645 mmHg 30%
    13:00 +31°C° 0 mm 2 mps 645 mmHg 31%
    14:00 +31°C° 0 mm 2 mps 644 mmHg 32%
    15:00 +30°C° 0 mm 3 mps 643 mmHg 33%
    16:00 +29°C° 0 mm 3 mps 643 mmHg 40%
    17:00 +27°C° 0 mm 2 mps 643 mmHg 47%
    18:00 +26°C° 0 mm 2 mps 643 mmHg 54%
    19:00 +24°C° 0.3 mm 2 mps 643 mmHg 63%
    20:00 +23°C° 0.3 mm 2 mps 643 mmHg 72%
    21:00 +21°C° 0.3 mm 2 mps 643 mmHg 81%
    22:00 +21°C° 0 mm 1 mps 643 mmHg 85%
    23:00 +20°C° 0 mm 1 mps 642 mmHg 88%
    Show more